RH
29 30 27 23 23 23 23 26 33 31 27 35 37 42 35 27 28 27 25 29 34 34 34 33 29 26 26 28 33 29 25 25 25 24 25 24 24 25 26 26 26 26 27 28
30 26 21 26 26 25 24 30 31 33 32 36 39 37 26 28 28 33 36 38 34 34 34 33 32 31 30 29 27 24 23 24 24 25 27 28 28 28 27 27 27 28 28 28
31 22 24 25 30 35 33 28 30 35 38 36 40 31 32 22 27 30 32 30 31 33 32 31 30 27 26 25 24 25 25 27 28 30 30 31 33 34 34 33 34 33 34 35
26 21 26 32 29 31 38 27 32 40 46 47 39 43 36 35 25 32 30 29 26 29 32 33 31 28 27 27 27 28 31 34 38 39 38 40 42 44 38 40 40 40 38 38
24 23 30 35 30 30 39 39 44 42 50 47 46 45 35 35 27 28 30 30 30 33 33 29 28 30 36 35 39 41 40 40 42 40 40 39 38 37 38 38 39 32 31 32
38 26 27 28 28 34 38 46 45 54 55 63 49 47 43 40 34 33 33 31 32 34 35 34 37 44 45 42 42 42 40 39 39 39 40 38 37 39 39 36 36 37 36 38
50 41 41 33 40 39 48 56 65 63 74 70 51 49 42 36 32 30 29 30 36 40 45 45 57 54 48 46 44 44 45 46 48 50 43 45 47 47 41 40 41 41 41 46
68 51 45 39 37 41 46 56 78 58 86 81 58 51 47 31 38 37 34 38 52 60 64 65 60 54 50 48 47 50 53 54 52 54 48 52 54 52 45 40 43 42 48 57
80 56 47 42 45 39 45 66 53 78 96 89 73 56 43 43 53 48 49 55 57 57 60 61 57 54 50 48 49 51 54 56 55 58 54 58 60 54 48 43 43 48 56 64
56 70 48 47 40 43 47 47 66 85 90 88 74 70 60 55 57 52 57 55 55 56 60 60 54 51 51 51 55 56 57 60 59 60 56 62 62 52 52 52 46 57 63 65
50 60 48 46 52 55 59 68 67 70 85 95 98 80 58 55 53 54 55 60 61 56 55 61 58 55 56 54 55 60 54 56 59 58 63 65 58 60 60 54 52 58 61 57
56 70 75 49 43 52 53 57 64 84 74 90 94 80 49 53 51 56 58 62 62 60 59 62 60 61 60 55 57 62 57 61 66 64 65 61 65 66 56 52 58 61 52 45
50 71 75 47 46 48 59 59 67 77 84 82 92 72 47 49 50 55 61 66 68 67 66 65 63 64 61 58 59 65 64 68 67 66 67 74 69 52 52 54 57 60 61 60
58 69 61 74 55 57 68 68 67 72 91 77 81 66 55 53 60 65 71 72 73 71 67 65 71 68 62 60 65 72 70 70 69 71 79 72 56 52 59 67 77 76 73 79
62 73 73 70 67 70 71 77 75 86 80 89 68 77 66 63 66 72 72 73 69 67 70 73 79 71 65 69 76 72 71 71 72 78 82 78 76 82 89 87 84 82 81 96
75 81 81 86 84 87 94 83 82 84 83 86 82 87 62 56 71 78 74 74 77 77 80 80 76 68 72 72 75 73 72 71 79 86 89 90 92 94 96 94 70 72 70 79
74 91 96 86 90 90 72 55 73 68 70 68 70 57 56 72 76 70 69 82 82 88 77 68 59 59 74 75 73 73 74 76 86 78 77 65 64 65 59 61 58 54 46 45
98 94 96 96 87 90 53 53 52 64 62 59 64 65 69 75 71 73 77 84 88 83 75 68 61 79 69 69 75 74 57 62 71 68 73 70 67 62 57 50 47 47 46 46
81 97 98 98 86 78 59 48 51 58 64 54 64 70 69 66 76 74 85 83 82 83 76 72 76 71 71 75 60 48 51 57 64 69 71 65 48 48 49 52 52 51 52 54
91 90 92 98 96 97 65 47 47 62 87 63 66 61 66 76 94 83 86 86 78 57 69 76 68 67 74 77 70 57 69 70 62 58 53 53 53 54 58 58 57 58 62 66
97 97 99 99 98 89 65 58 53 83 71 58 60 68 78 88 96 88 78 67 50 59 69 65 68 75 81 74 59 59 51 56 57 52 51 49 52 62 65 63 63 66 66 68
69 79 93 98 98 95 57 60 68 60 63 64 72 77 93 93 90 82 73 63 56 70 65 59 75 79 78 74 58 53 52 60 60 55 50 48 56 65 63 67 63 66 72 71
84 74 79 78 83 62 51 60 58 64 74 77 86 91 93 92 85 75 74 63 62 72 65 65 78 84 79 84 72 84 75 81 60 57 52 56 59 62 64 70 66 70 77 83
77 74 87 75 67 72 69 61 65 76 84 88 92 94 86 84 77 80 76 64 69 68 67 68 79 86 77 62 73 64 57 58 59 59 60 63 67 70 72 79 71 73 81 86
89 81 90 90 74 76 72 74 90 95 91 91 91 82 77 75 80 80 74 76 75 73 69 68 82 85 74 68 58 60 56 60 61 64 66 72 79 81 85 89 79 81 84 83
86 85 95 83 66 76 84 94 92 89 90 86 83 75 73 77 82 75 83 76 76 77 73 79 86 80 73 72 54 57 61 63 66 68 73 82 77 78 89 90 88 82 84 78
Wind_Speed
6 7 3 3 1 1 1 1 3 3 2 5 3 6 9 9 7 7 3 5 7 5 4 5 7 8 11 13 16 15 13 11 10 9 11 12 15 15 17 17 21 24 27 29
6 4 1 6 5 4 3 2 4 5 3 0 5 8 6 8 5 5 6 6 6 5 3 8 12 12 15 17 16 14 12 11 11 13 11 11 14 18 23 26 28 29 30 34
5 1 4 4 5 6 4 2 3 5 6 1 6 4 6 4 5 7 7 3 2 5 6 2 6 10 11 12 12 10 10 11 11 12 15 17 20 22 26 30 30 31 35 36
3 3 5 5 4 2 3 2 2 5 2 1 4 2 5 6 3 6 5 2 2 3 3 4 7 6 8 6 7 9 10 8 7 9 13 15 19 23 29 29 31 30 28 31
1 3 5 6 2 1 7 4 2 1 3 3 8 4 6 6 4 2 2 6 4 6 6 4 4 3 5 3 6 10 12 12 14 18 21 22 24 25 27 29 28 28 29 27
2 3 3 2 3 2 6 4 5 4 2 3 3 3 5 3 4 4 4 3 5 5 6 7 6 9 13 14 15 16 17 20 22 23 23 22 22 25 28 30 30 32 31 28
6 3 5 3 5 6 9 6 3 5 5 3 3 1 5 6 4 2 0 5 7 8 7 5 8 13 15 18 18 18 19 22 24 21 18 19 21 26 31 33 34 34 30 24
4 5 5 6 1 2 3 4 4 2 1 4 5 3 3 3 5 8 7 6 7 8 6 7 10 10 13 17 19 19 18 23 24 20 20 20 23 27 30 32 34 32 20 10
4 3 5 1 2 1 2 4 2 5 2 3 3 5 5 3 7 7 8 7 6 6 6 6 6 8 14 19 19 19 17 19 21 19 20 23 28 32 33 35 31 24 9 12
1 2 1 4 1 5 6 4 4 3 2 3 5 5 4 6 8 8 6 6 7 6 7 6 7 9 13 15 17 17 19 19 21 19 20 26 31 35 33 32 25 13 11 12
2 2 6 1 5 1 4 3 5 4 3 3 3 6 5 4 4 5 4 5 6 7 6 7 12 13 14 15 17 19 21 21 24 19 23 30 35 33 32 21 13 12 10 2
2 4 3 4 1 1 2 3 4 4 3 1 3 6 4 7 2 5 1 5 6 6 8 9 17 19 18 24 24 22 22 23 21 19 28 32 30 29 20 6 6 4 1 5
1 2 4 8 5 5 4 1 4 5 3 6 3 6 0 8 9 2 4 6 7 8 9 8 12 15 21 28 27 23 22 23 17 24 26 26 25 21 11 2 4 4 6 7
5 2 5 5 7 5 5 4 4 5 3 4 11 17 19 15 9 6 7 7 8 8 8 8 8 13 23 26 27 23 22 17 21 22 19 18 17 10 5 6 8 11 10 13
3 2 4 6 9 8 11 11 8 8 8 6 15 8 12 11 8 6 7 7 10 10 8 8 7 13 17 19 21 21 17 22 22 15 12 10 8 8 8 11 11 14 18 20
3 3 0 4 4 5 7 11 11 9 7 11 14 15 9 4 3 5 9 11 11 10 8 8 8 13 14 18 20 21 24 22 15 10 8 10 12 13 11 12 13 12 15 16
0 3 2 5 4 9 6 4 4 3 6 5 6 9 2 3 8 10 12 8 10 6 6 8 9 16 18 23 24 23 19 15 10 11 16 14 15 15 13 14 14 11 11 11
5 4 2 3 5 2 6 3 7 7 9 9 7 6 4 7 7 8 8 8 6 8 10 10 13 17 23 27 25 14 6 11 10 8 7 9 12 13 11 10 10 11 11 14
3 5 2 2 3 6 12 6 2 2 7 3 3 3 6 9 9 7 6 4 3 6 16 20 17 22 26 25 7 3 4 3 1 9 13 11 10 11 13 14 13 12 13 15
5 5 3 2 4 5 8 3 1 2 6 3 1 12 13 6 9 6 11 11 12 18 16 15 20 26 22 14 9 11 10 8 7 11 10 10 12 12 13 12 12 13 14 11
2 0 4 3 4 8 10 6 1 3 5 4 3 8 5 5 1 3 4 8 14 15 15 16 19 17 16 14 13 13 8 5 8 11 11 12 13 12 11 13 13 14 12 13
4 3 4 2 3 8 3 1 3 6 3 5 4 3 1 5 3 5 9 11 15 14 14 17 16 15 16 15 11 10 8 10 13 10 11 12 13 13 12 11 13 15 12 18
3 7 3 8 7 5 4 7 7 5 6 5 2 4 6 3 4 11 9 11 15 14 15 15 13 15 18 12 8 10 15 13 9 8 10 12 13 11 11 11 15 16 15 19
4 4 4 2 6 8 12 13 7 5 4 7 7 3 2 7 10 11 11 10 10 15 15 14 13 16 15 13 12 15 12 8 8 8 9 11 11 12 12 14 14 16 18 20
6 2 3 6 13 14 12 3 3 5 5 5 3 9 9 7 10 7 8 9 15 17 18 16 14 15 17 19 17 16 13 11 11 9 9 10 12 14 16 15 14 16 14 16
5 6 4 13 13 9 9 3 4 6 2 6 7 8 11 9 8 9 9 16 18 20 20 15 14 17 21 17 18 16 12 12 13 12 10 11 13 15 13 15 18 16 14 16
Wind_Direction
2 64 59 352 52 217 179 227 288 259 274 349 315 291 312 333 37 24 45 98 99 92 8 77 117 154 177 183 186 197 213 223 229 241 261 275 279 291 292 298 299 294 285 279
32 71 3 106 57 64 26 4 305 296 284 33 345 318 320 5 26 45 86 84 103 105 82 77 106 132 158 171 188 208 225 233 244 249 265 282 295 300 304 303 301 298 289 281
116 50 56 88 34 32 329 206 246 241 327 46 332 355 360 358 44 48 43 59 78 119 118 147 155 167 175 191 209 231 250 264 278 292 299 306 308 306 307 309 308 306 302 298
60 20 76 56 52 64 310 176 273 272 63 224 22 256 343 337 31 47 23 347 170 191 226 226 217 224 237 253 259 275 291 313 348 0 350 340 328 318 315 313 311 311 310 309
283 39 51 46 310 196 245 339 272 244 139 88 351 70 294 352 5 21 239 242 303 267 241 257 267 352 16 17 54 64 69 44 14 359 353 341 329 325 326 328 326 327 324 318
11 315 48 300 310 354 294 35 43 47 79 46 325 102 303 318 300 329 10 303 255 273 339 5 53 69 62 58 45 29 15 5 352 343 340 344 344 341 337 331 324 325 321 315
340 356 323 27 5 352 22 41 357 6 12 211 291 44 227 313 9 342 288 297 327 351 345 349 51 51 44 28 13 4 357 351 345 341 344 348 348 344 335 328 321 319 317 313
42 341 2 340 20 290 9 94 130 193 312 279 311 200 200 16 47 25 330 12 14 22 36 58 51 53 29 7 3 354 347 342 340 334 338 340 341 339 335 329 318 313 306 295
39 295 322 336 325 47 326 45 159 105 14 38 278 316 290 152 24 356 330 40 15 21 26 36 45 24 3 356 349 345 330 326 332 327 330 332 333 334 329 322 309 298 266 161
340 324 281 294 6 24 94 138 33 11 53 312 307 292 246 28 342 346 12 20 4 10 18 359 329 323 333 334 328 328 331 327 332 325 323 324 325 325 319 309 297 267 180 153
57 83 293 11 35 11 2 26 56 105 110 176 294 268 205 161 330 333 41 357 343 330 299 288 285 290 301 318 327 331 335 331 328 319 320 323 325 327 318 299 272 191 162 171
358 136 296 254 169 275 95 115 100 109 301 219 164 268 303 128 227 133 293 322 315 290 275 276 286 292 308 330 328 328 326 323 322 323 322 324 330 328 325 288 167 192 54 21
175 3 3 345 20 8 85 185 104 95 78 222 218 264 145 290 343 185 306 311 301 283 287 289 305 309 315 320 320 319 320 322 322 323 327 333 335 338 335 116 104 38 20 14
91 117 156 199 241 238 259 198 189 148 218 249 240 272 285 287 297 294 297 271 269 274 290 298 299 306 316 316 320 322 321 319 323 331 342 352 354 0 43 53 32 10 1 350
89 208 189 242 259 277 278 276 258 206 227 225 268 254 267 274 264 258 273 283 293 298 294 300 305 307 306 315 328 322 324 332 335 342 4 15 20 36 12 354 339 327 318 316
22 261 292 274 312 304 276 256 250 263 246 238 257 268 262 267 300 297 288 285 281 288 311 312 314 315 319 317 321 330 335 337 335 347 353 344 342 339 333 347 359 335 312 302
324 126 64 278 335 323 328 260 184 223 234 207 254 276 291 329 318 308 302 280 307 327 343 343 323 314 328 334 334 326 326 330 351 45 37 35 16 3 345 334 316 317 317 315
138 99 114 260 348 347 246 272 225 219 265 270 266 284 276 255 278 273 278 309 359 1 331 300 307 334 327 326 327 324 15 84 75 51 11 330 329 319 324 340 338 329 325 323
131 128 178 236 224 293 302 309 50 178 262 273 218 252 294 311 332 331 64 86 26 350 295 292 327 328 326 330 338 95 93 104 286 300 323 330 329 336 336 336 335 332 326 322
60 69 119 143 251 252 238 255 18 132 292 228 198 336 304 330 305 336 19 2 329 304 296 316 325 326 330 336 294 288 304 295 319 335 335 329 330 337 338 339 336 330 328 328
358 295 213 215 248 273 249 267 21 79 271 207 240 290 288 271 30 32 307 295 292 286 302 315 328 324 320 319 306 273 275 315 336 326 319 329 336 342 340 335 337 335 330 327
192 186 214 154 208 280 214 228 149 252 259 279 272 286 269 101 42 302 276 274 291 293 306 320 318 316 321 320 309 311 323 327 302 309 327 338 338 337 338 340 342 338 324 329
267 195 203 186 218 224 234 244 263 289 267 284 176 74 88 53 296 273 288 289 298 287 299 313 305 311 319 313 283 261 270 261 275 317 333 337 338 339 338 331 338 337 330 330
264 200 222 324 242 266 292 302 296 9 56 62 85 147 199 262 260 262 279 289 291 293 297 308 303 307 306 308 289 279 279 265 282 303 322 334 334 333 328 326 330 334 332 329
210 153 242 251 278 280 274 337 54 81 90 61 329 259 259 278 285 280 293 300 300 298 306 305 282 293 291 298 304 293 276 269 269 288 312 329 331 325 321 324 331 332 331 332
202 235 235 270 267 276 297 116 75 80 57 241 257 288 298 284 285 304 307 314 311 311 312 298 293 304 303 302 308 304 280 272 273 284 306 331 337 343 343 335 329 336 331 331